Temperature
12 12 13 13 13 13 13 14 14 15 15 16 16 16 16 17 17 16 16 16 16 16 16 16 16 16 16 16 16 16 16 16 16 16 16 16 16 16
11 11 12 12 13 13 13 13 14 14 15 16 16 16 16 16 16 16 16 16 16 16 16 16 16 16 16 16 16 16 16 16 16 16 16 16 16 16
10 11 11 12 12 12 13 13 13 14 14 15 16 16 16 16 16 16 16 16 16 16 16 16 16 16 16 16 16 16 16 16 16 16 16 16 16 16
10 10 10 11 11 12 12 12 13 13 14 14 15 15 15 16 16 16 16 16 16 16 16 16 16 16 16 16 16 16 16 16 16 16 16 16 16 16
9 9 10 10 10 11 11 12 12 13 13 14 14 15 15 15 15 15 15 15 15 15 16 16 16 16 16 16 16 16 16 16 16 16 16 15 15 15
9 9 9 9 10 10 11 11 11 12 12 13 14 14 14 15 15 15 14 14 15 15 15 15 15 15 16 16 16 16 16 16 16 15 15 15 15 15
8 8 8 9 9 10 10 10 11 11 12 12 13 13 14 14 14 14 14 14 14 14 14 14 15 15 15 15 15 15 15 15 15 15 15 15 15 15
7 8 8 8 9 9 9 10 10 11 11 11 12 12 13 14 14 14 14 13 12 12 13 13 13 13 14 14 14 15 15 15 15 15 15 15 14 14
7 7 7 8 8 8 9 9 10 10 10 11 11 12 12 13 13 14 14 14 14 13 12 12 12 12 12 13 13 14 14 14 14 14 14 14 14 14
6 7 7 7 8 8 8 9 9 10 10 10 11 11 12 12 13 14 14 13 13 12 12 12 11 11 11 12 12 12 13 13 13 13 13 13 13 13
6 6 6 7 7 7 8 8 9 9 10 10 10 11 11 12 12 12 12 12 12 11 11 11 11 11 11 11 11 11 11 12 12 12 12 13 13 13
6 6 6 6 7 7 7 8 8 9 9 10 10 10 10 11 11 12 12 12 12 11 11 11 11 11 10 10 10 11 11 11 11 12 12 12 12 12
6 6 6 6 6 7 7 8 8 9 9 9 9 10 10 10 11 11 12 12 13 12 12 11 11 11 11 10 10 10 11 11 11 11 12 12 12 12
6 6 6 6 6 7 7 7 8 8 9 9 9 9 10 10 10 11 11 11 12 13 13 12 12 12 11 11 10 10 10 11 11 11 12 12 12 12
6 6 6 6 6 7 7 7 8 8 8 8 9 9 9 10 10 11 11 11 11 11 12 12 12 12 12 12 12 12 11 11 11 11 11 12 12 12
6 6 6 6 6 7 7 7 8 8 8 8 9 9 9 9 10 10 10 10 11 11 11 11 12 12 12 12 13 13 12 12 11 11 11 11 11 11
6 6 6 6 7 7 7 8 8 8 8 8 9 9 9 9 9 10 10 10 10 11 11 11 11 11 11 12 12 12 12 12 12 11 11 11 11 11
6 6 6 6 7 7 7 8 8 8 8 8 9 9 9 9 9 10 10 10 10 10 11 11 11 10 10 10 11 12 12 11 11 11 11 11 11 10
6 6 7 7 7 7 8 8 8 8 8 8 9 9 9 9 9 9 9 9 10 10 10 11 11 11 10 10 10 10 11 11 11 11 11 11 11 10
7 7 7 7 7 8 8 8 8 8 8 8 9 9 9 9 9 9 9 9 9 10 10 10 11 11 12 12 11 11 11 11 11 11 10 10 9 9
7 7 7 7 7 8 8 8 8 8 8 8 9 9 9 9 9 9 9 9 9 9 10 10 11 11 10 10 11 11 11 10 11 11 10 9 8 8
7 7 7 8 8 8 8 8 8 8 8 9 9 9 9 9 9 9 9 9 9 9 10 10 10 9 9 10 10 11 11 10 9 9 9 10 9 9
8 8 8 8 8 8 8 8 8 9 9 9 9 9 9 9 9 9 9 9 9 9 9 9 9 9 9 9 10 10 10 10 9 8 8 8 9 9
Wind_Speed
5 5 4 4 3 3 3 2 2 2 2 3 2 3 4 5 10 10 9 13 14 14 15 15 16 17 18 19 21 22 22 22 22 22 22 23 24 24
5 6 6 4 3 3 3 3 3 3 3 3 3 2 4 6 8 9 9 12 11 10 11 11 13 14 16 17 18 19 20 20 20 20 20 20 20 19
6 6 7 6 4 3 3 3 3 3 4 3 2 2 3 8 7 7 9 8 8 8 8 9 10 12 13 14 15 16 17 17 17 17 17 16 15 15
7 7 8 6 6 5 4 4 4 3 4 4 2 2 3 8 9 9 6 7 7 8 7 7 8 9 11 12 13 14 14 15 15 15 14 14 14 12
8 8 8 7 7 6 6 5 4 5 4 4 4 2 2 6 8 7 7 5 6 8 9 8 8 8 9 10 11 12 12 13 13 14 14 13 12 11
8 8 8 8 9 8 7 7 6 5 5 4 4 3 4 5 8 8 6 4 4 5 7 9 11 11 10 11 11 12 13 13 14 14 14 13 13 12
8 8 8 11 12 10 8 7 7 6 5 5 5 4 5 8 8 6 7 6 3 3 5 4 6 6 7 9 11 13 15 15 15 15 15 15 15 14
9 8 9 11 13 14 15 13 11 9 8 6 6 6 7 8 7 9 9 7 5 4 4 3 4 5 4 6 10 14 16 17 17 18 18 17 17 17
10 9 11 12 11 8 11 14 14 15 13 9 8 8 8 9 10 12 11 9 5 7 5 3 3 4 4 7 11 14 16 17 18 19 19 19 19 19
11 11 11 11 11 9 8 8 8 10 11 9 8 8 7 8 11 11 10 7 6 6 4 4 3 3 4 7 9 13 16 18 19 19 20 20 20 20
12 12 12 12 14 14 9 8 8 8 10 11 9 8 9 10 11 10 11 11 8 5 3 4 4 3 3 3 7 10 14 17 18 19 20 21 22 20
9 10 15 14 14 15 10 9 9 8 7 7 6 7 8 9 13 13 13 13 10 5 4 5 5 4 3 2 3 6 10 13 16 19 20 21 20 16
7 7 8 13 14 15 13 10 11 9 8 8 7 6 6 7 9 9 10 11 10 5 9 7 6 4 4 4 2 2 4 6 9 12 15 16 16 15
7 6 7 11 13 13 11 11 12 10 6 7 7 7 7 8 8 9 10 8 5 7 13 10 6 7 6 5 4 3 3 5 6 6 8 12 12 11
5 7 8 10 10 8 11 12 10 7 6 6 8 8 7 7 7 7 8 7 6 7 14 7 10 10 6 6 7 6 4 4 4 4 4 5 5 7
3 3 3 5 5 6 6 7 6 7 7 6 7 6 6 6 7 7 8 9 7 5 6 8 11 14 6 6 8 8 6 9 8 6 5 4 6 10
2 1 1 2 3 3 3 4 4 5 6 5 6 5 6 7 6 7 7 8 7 9 8 5 6 5 6 9 9 9 8 6 8 7 5 4 4 8
2 2 3 3 4 4 5 4 5 6 6 6 6 6 6 7 7 6 8 9 9 9 9 8 9 6 4 3 4 11 9 7 7 8 5 5 5 6
2 3 3 3 4 4 5 5 6 6 6 6 6 6 6 6 7 8 9 9 8 9 10 11 12 10 8 7 5 10 12 10 10 8 6 5 6 7
4 4 5 4 4 4 5 5 5 5 5 6 6 6 6 6 7 8 9 9 9 8 9 10 12 11 9 9 7 7 15 12 11 11 8 4 3 6
5 6 6 5 5 5 5 5 6 6 6 6 6 7 7 7 7 8 9 12 9 9 12 12 10 9 6 8 7 6 7 15 16 10 10 6 4 4
7 7 6 7 6 6 6 6 6 6 7 7 7 7 7 7 8 9 10 11 10 9 10 8 9 9 6 8 8 8 9 10 12 16 17 13 8 8
8 7 7 6 6 6 6 7 7 6 6 7 7 8 8 7 8 8 9 10 10 10 10 10 9 8 7 7 7 7 10 10 7 6 5 7 11 15
Wind_Direction
273 273 267 262 248 236 222 209 194 217 251 257 219 184 164 152 162 162 161 176 183 189 196 201 204 207 208 209 211 212 214 216 218 221 225 228 229 229
271 268 267 263 256 242 233 226 206 201 223 241 232 174 153 141 135 133 135 144 155 170 184 196 202 206 207 207 209 211 214 216 220 223 225 226 227 227
281 267 262 259 258 248 235 227 220 206 227 251 248 152 133 140 124 116 117 115 123 144 164 186 198 203 205 205 207 208 211 213 214 215 216 217 216 217
273 268 263 259 252 249 237 231 230 223 216 233 243 173 150 153 139 129 120 115 112 121 139 159 176 189 194 198 200 200 199 200 200 200 198 196 194 194
256 255 257 251 248 244 236 227 222 230 218 218 228 200 148 155 139 123 116 109 107 109 110 119 135 149 162 173 178 180 181 180 179 177 174 172 172 174
253 247 248 243 241 238 234 227 216 218 216 214 219 199 164 161 150 142 136 121 114 104 97 100 106 108 122 139 148 154 156 155 154 153 153 152 152 152
260 253 251 253 250 237 230 222 211 211 211 211 214 194 176 172 166 153 148 137 105 114 111 91 89 84 85 109 129 139 143 144 144 144 143 142 141 141
258 259 259 262 260 249 237 226 211 206 208 209 214 204 192 181 165 157 153 153 155 154 124 95 81 80 58 80 123 133 136 138 138 137 136 135 133 132
243 249 262 260 249 241 238 235 227 218 207 202 210 211 196 183 172 169 169 162 152 154 130 100 73 73 52 78 118 128 132 133 133 133 131 129 128 127
236 235 240 248 250 236 230 232 227 223 217 210 210 212 206 188 181 174 161 136 111 133 121 115 95 73 54 61 97 122 128 130 129 128 127 126 124 122
238 236 234 236 238 228 219 223 227 232 225 210 207 202 192 182 171 159 156 156 155 154 119 117 121 97 63 49 74 106 121 127 129 129 128 126 123 116
244 239 234 229 227 222 213 208 217 218 202 197 200 196 191 187 177 177 174 172 161 153 151 126 135 132 106 63 59 92 108 118 127 130 131 130 128 118
244 237 229 225 224 220 212 208 214 205 193 190 191 189 186 191 193 188 184 180 170 157 160 141 141 134 126 127 107 97 117 129 126 130 133 137 137 134
242 235 226 217 217 215 211 211 208 197 186 184 185 192 196 195 197 193 188 186 168 154 160 150 142 152 137 134 143 130 127 144 142 141 143 141 137 136
244 234 222 219 216 211 205 197 189 183 181 185 190 196 197 193 184 184 178 159 124 139 158 157 147 151 144 146 149 151 152 176 172 153 154 154 153 147
255 238 209 203 195 184 180 181 173 178 183 190 190 189 179 179 185 181 179 169 152 143 151 153 153 153 145 144 153 161 160 167 176 174 160 161 171 174
245 220 197 176 170 163 162 166 168 174 183 187 183 176 176 181 184 178 172 166 164 164 159 144 134 124 127 147 154 160 155 156 166 167 157 162 182 184
244 228 221 206 193 182 178 178 180 186 185 183 180 177 179 181 179 172 171 173 172 168 164 156 146 128 100 70 151 163 165 161 161 163 152 155 182 192
245 242 237 223 208 193 185 186 192 194 182 177 179 178 178 177 173 174 176 175 171 168 165 163 164 161 162 170 183 177 171 166 163 171 173 161 178 190
235 240 241 236 218 203 197 194 195 189 183 181 179 177 175 173 174 176 178 176 170 163 164 170 176 178 179 168 160 178 179 169 170 176 176 158 146 170
240 239 238 234 225 211 206 200 193 188 186 183 183 181 177 171 174 176 176 170 167 170 178 183 178 151 115 118 127 147 173 181 175 171 168 158 151 155
243 242 240 233 224 215 207 201 197 194 187 184 182 181 179 175 175 174 175 176 177 177 179 167 147 149 157 167 164 158 164 172 182 181 176 171 165 181
238 238 239 236 225 211 203 199 195 196 193 188 182 181 178 178 176 176 177 176 176 174 168 163 162 168 176 170 158 154 160 165 163 162 176 199 200 197
Height
1464 1463 1463 1463 1464 1464 1465 1466 1468 1467 1467 1469 1471 1473 1476 1480 1484 1487 1491 1495 1498 1502 1505 1508 1511 1514 1518 1521 1525 1529 1532 1536 1539 1542 1545 1548 1551 1553
1459 1459 1459 1459 1459 1460 1461 1463 1464 1466 1466 1467 1469 1471 1473 1477 1480 1484 1487 1491 1494 1497 1501 1504 1507 1510 1513 1517 1521 1524 1528 1531 1534 1537 1540 1543 1545 1547
1453 1454 1454 1455 1455 1456 1457 1458 1460 1462 1463 1464 1466 1468 1471 1474 1477 1480 1483 1486 1489 1493 1496 1499 1503 1506 1509 1513 1516 1520 1523 1526 1529 1532 1535 1538 1540 1542
1447 1448 1449 1450 1450 1451 1452 1453 1455 1457 1460 1461 1463 1465 1467 1471 1474 1477 1480 1482 1485 1488 1491 1494 1498 1501 1505 1508 1512 1515 1519 1522 1525 1528 1531 1533 1536 1538
1441 1442 1443 1444 1445 1447 1448 1449 1451 1453 1455 1457 1459 1462 1464 1467 1470 1473 1476 1478 1481 1484 1487 1490 1494 1497 1500 1504 1508 1511 1514 1518 1521 1524 1526 1529 1531 1533
1435 1435 1436 1438 1439 1441 1442 1444 1446 1448 1450 1452 1455 1458 1460 1463 1466 1469 1472 1475 1478 1481 1484 1487 1490 1493 1497 1500 1504 1507 1510 1514 1517 1520 1522 1525 1527 1529
1428 1428 1429 1431 1432 1435 1436 1439 1441 1442 1444 1446 1450 1453 1456 1458 1461 1465 1469 1472 1475 1478 1480 1484 1487 1490 1493 1497 1500 1503 1507 1510 1513 1516 1519 1521 1524 1526
1421 1421 1422 1423 1425 1427 1430 1432 1435 1437 1439 1441 1444 1447 1450 1454 1457 1460 1465 1469 1472 1476 1478 1482 1484 1488 1491 1494 1497 1501 1504 1507 1510 1513 1516 1518 1521 1523
1413 1413 1413 1414 1417 1419 1422 1425 1428 1430 1434 1436 1438 1441 1445 1448 1452 1455 1460 1465 1468 1472 1477 1479 1483 1486 1490 1492 1495 1498 1501 1505 1507 1510 1513 1516 1518 1521
1404 1405 1405 1406 1409 1412 1414 1417 1420 1424 1427 1430 1433 1436 1440 1444 1447 1451 1455 1461 1467 1471 1475 1477 1481 1485 1488 1491 1494 1496 1499 1502 1505 1508 1511 1514 1517 1519
1395 1395 1396 1397 1400 1404 1407 1409 1413 1417 1421 1424 1427 1430 1433 1437 1441 1446 1451 1457 1462 1467 1471 1474 1478 1482 1486 1489 1492 1495 1498 1501 1504 1507 1510 1513 1516 1518
1386 1386 1387 1389 1392 1395 1399 1402 1406 1410 1415 1418 1421 1424 1427 1431 1435 1440 1445 1450 1455 1461 1466 1471 1475 1480 1484 1488 1490 1493 1496 1499 1503 1506 1509 1512 1515 1518
1378 1378 1379 1381 1384 1387 1391 1394 1399 1404 1409 1412 1416 1419 1422 1426 1430 1434 1440 1445 1449 1454 1459 1466 1471 1475 1479 1483 1487 1491 1494 1498 1501 1504 1507 1511 1514 1517
1372 1372 1373 1375 1378 1381 1385 1389 1394 1399 1403 1407 1410 1413 1416 1420 1424 1429 1434 1440 1446 1451 1455 1461 1465 1470 1475 1479 1483 1487 1491 1495 1499 1503 1506 1509 1512 1515
1369 1369 1369 1371 1373 1376 1380 1384 1389 1393 1398 1402 1405 1408 1412 1416 1420 1425 1429 1435 1441 1447 1452 1457 1463 1468 1473 1476 1479 1484 1488 1492 1496 1500 1504 1508 1511 1513
1367 1367 1367 1368 1370 1373 1377 1381 1384 1389 1393 1397 1401 1405 1408 1412 1415 1420 1424 1429 1435 1441 1448 1454 1459 1465 1469 1474 1478 1481 1485 1488 1493 1497 1502 1506 1509 1512
1367 1367 1366 1367 1368 1371 1374 1378 1381 1385 1389 1394 1398 1401 1404 1408 1411 1415 1419 1424 1429 1435 1442 1449 1455 1461 1467 1471 1475 1479 1482 1487 1491 1495 1499 1503 1507 1510
1367 1366 1366 1367 1368 1370 1373 1376 1379 1383 1387 1391 1395 1398 1401 1404 1408 1411 1415 1420 1425 1431 1437 1443 1449 1455 1461 1466 1471 1475 1479 1484 1489 1493 1497 1501 1504 1508
1365 1365 1365 1366 1367 1369 1371 1374 1377 1381 1384 1388 1392 1395 1398 1402 1405 1409 1412 1416 1421 1426 1432 1438 1443 1448 1454 1459 1465 1471 1476 1481 1486 1490 1494 1498 1503 1507
1363 1363 1364 1365 1366 1367 1369 1372 1374 1378 1381 1384 1388 1392 1395 1399 1402 1405 1409 1413 1417 1422 1428 1433 1439 1444 1449 1454 1460 1466 1471 1477 1481 1486 1491 1497 1502 1507
1361 1361 1362 1362 1363 1365 1367 1369 1371 1374 1377 1381 1384 1388 1392 1395 1399 1402 1406 1410 1414 1418 1423 1429 1435 1443 1448 1454 1459 1463 1468 1474 1479 1484 1489 1494 1498 1502
1358 1358 1359 1359 1360 1362 1363 1365 1367 1370 1373 1377 1381 1384 1388 1392 1395 1399 1402 1406 1410 1416 1421 1427 1433 1438 1444 1449 1455 1460 1465 1471 1477 1484 1489 1492 1493 1497
1354 1354 1355 1356 1357 1358 1360 1362 1364 1367 1370 1373 1376 1380 1384 1388 1392 1395 1399 1403 1407 1412 1418 1423 1428 1434 1440 1446 1452 1457 1462 1468 1473 1479 1484 1489 1494 1498